Retour au catalogue

ONEWEB-0238

ActifCommunicationsPO
NORAD 48784·PAYLOAD·🇬🇧 United Kingdom

Lancé May 28, 2021 depuis Vostochny Cosmodrome

Loading…

Prochains Passages (prochaines 24 heures)

TLE

FraisSource: CelesTrak SupGP

Époque: Sep 14, 2026, 15:02 UTC

1 48784C 21045T   26257.62690232 -.00002933  00000+0 -78011-2 0  2579
2 48784  87.8993 241.3491 0001640  90.4857  12.6876 13.15550096    11

Suivez ONEWEB-0238 en temps réel avec AllMySat

Download on the App Store